Regional Weather Roundup
Issued by NWS

Home | Current Version | Previous Version | Text Only | Print | Product List | Glossary On
Versions: 1 2 3 4 5 6 7 8 9 10 11 12 13 14 15 16 17 18 19 20 21 22 23 24 25 26 27 28 29 30 31 32 33 34 35 36 37 38 39 40 41 42 43 44 45 46 47 48 49 50
000
ASHW40 PHFO 241443
RWRHI

WEATHER ROUNDUP FOR HAWAII
NATIONAL WEATHER SERVICE HONOLULU HI
400 AM HST FRI NOV 24 2017

THIS IS AN AUTOMATED REPORT THAT HAS NOT BEEN QUALITY CONTROLLED.

NOTE..."FAIR" INDICATES FEW OR NO CLOUDS BELOW 12,000 FEET WITH NO
SIGNIFICANT WEATHER AND/OR OBSTRUCTIONS TO VISIBILITY.

* - THESE SITES REPORT LIMITED FIELDS
# - BUOY DATA PROVIDED BY PACIFIC ISLANDS OCEAN OBSERVING SYSTEM.

HIZ001>004-241500-
KAUAI-NIIHAU-

CITY           SKY/WX    TMP DP  RH WIND       PRES   REMARKS
LIHUE APT      PTCLDY    69  62  78 NE28G35   30.08F
PORT ALLEN*      N/A     70 N/A N/A NE14        N/A
POIPU*           N/A     70 N/A N/A NE9G24      N/A
PRINCEVILLE*     N/A     70 N/A N/A E8G15       N/A
KOKOLE POINT*  NOT AVBL
MOLOAA DAIRY*    N/A     70  59  68 NE5G13      N/A
WAIMEA HTS*      N/A     66  57  72 SW3         N/A
PUU OPAE*        N/A     61  50  67 NE3G10      N/A
PUU LUA*       NOT AVBL
MAKAHA RIDGE*    N/A     63  54  72 NE2G12      N/A
$$

HIZ005>011-241500-
OAHU-

CITY           SKY/WX    TMP DP  RH WIND       PRES   REMARKS
HONOLULU       PTCLDY    73  55  53 NE8       30.03F
KALAELOA       CLEAR     68  58  70 VRB6      30.04F
KANEOHE MCB    MOCLDY    73  61  65 NE20G28   30.02F
WHEELER FIELD  DRIZZLE   66  57  72 N8        30.07S
BELLOWS*         N/A    N/A N/A N/A NE18G26     N/A
KAHUKU*          N/A    N/A N/A N/A NE9G20      N/A
WHEELER*         N/A    N/A N/A N/A N6          N/A
WAIANAE HARBOR   N/A    N/A N/A N/A NE9G25      N/A
DILLINGHAM*    NOT AVBL
KAHUKU TRN*      N/A     75  64  69 SW9G23      N/A
KAWAILOA*        N/A     64  54  68 NE10G25     N/A
KII*             N/A     73  59  60 NE18G26     N/A
MAKUA RANGE*     N/A     72  54  53 W12G23      N/A
OAHU FOREST NW   N/A     63  54  72 NE18G30     N/A
SCHOFIELD BRK*   N/A     64  54  68 MISG        N/A
SCHOFIELD S*   NOT AVBL
WAIANAE VLY*     N/A     64  54  68 NW12G32     N/A
KUAOKALA*        N/A     64  54  68 VRB31G45    N/A
HONOULIUULI*   NOT AVBL
MOKUOLOE IS*   NOT AVBL
PALEHUA*         N/A     61  52  72 NE17G31     N/A
WAIAWA PHB*    NOT AVBL
$$

HIZ012>013-241500-
MOLOKAI-

CITY           SKY/WX    TMP DP  RH WIND       PRES   REMARKS
MOLOKAI AIRPT  PTCLDY    71  57  61 N12G24    30.03F
KALAUPAPA      NOT AVBL
MAKAPULAPAI*     N/A     72  59  64 NE21G33     N/A
MOLOKAI 1*       N/A     57  52  82 NE7G20      N/A
PUU ALII*        N/A     51  51 100 N3G13       N/A
$$

HIZ016-241500-
KAHOOLAWE-

CITY           SKY/WX    TMP DP  RH WIND       PRES   REMARKS
KAHOOLAWE*     NOT AVBL
HAKIOAWA*        N/A     67  59  75 MISG        N/A
HONOKANAIA*    NOT AVBL
KANELOA*         N/A     70  55  60 N21G41    30.04F
KEALIALALO*    NOT AVBL
LUA MAKIKA*    NOT AVBL
$$

HIZ014>015-241500-
LANAI-

CITY           SKY/WX    TMP DP  RH WIND       PRES   REMARKS
LANAI CITY     FAIR      65  56  72 NE29G39   30.02F
LANAI 1*         N/A    N/A N/A N/A MISG        N/A
$$

HIZ017>028-241500-
MAUI-

CITY           SKY/WX    TMP DP  RH WIND       PRES   REMARKS
KAHULUI        MOCLDY    73  55  53 NE16      30.03F
KAPALUA-W MAUI NOT AVBL
HANA AIRPORT   CLOUDY    72  59  64 N7        30.07S
HANA*            N/A     73 N/A N/A NE9G18      N/A
HALEAKALA SUMM   N/A     41 -20   7 NE13        N/A
MAALAEA BAY*     N/A     70 N/A N/A NE16G24     N/A
HALEAKALA*     NOT AVBL
KAUPO GAP*     NOT AVBL
KULA 1*          N/A     45  14  29 E5          N/A
$$

HIZ023>026-241500-
BIG ISLAND OF HAWAII COAST AND LOWER SLOPES-

CITY           SKY/WX    TMP DP  RH WIND       PRES   REMARKS
KAILUA KONA    CLEAR     73  52  47 NE21G28   29.93F
HILO           CLOUDY    68  61  78 N13       30.02F
HONOKAA*         N/A     61 N/A N/A VRB1        N/A
KAWAIHAE MWT*    N/A     75 N/A N/A NE1G18      N/A
KAWAIHAE*        N/A     75 N/A N/A NE15G31   29.94F
SOUTH POINT*     N/A     64 N/A N/A NW9         N/A
UPOLU AIRPORT* NOT AVBL
KAMUELA*       PTSUNNY   57  55  94 NE17      30.07F
HAKALAU*         N/A     45  43  93 NW3G10      N/A
KALOKO-HONOKO*   N/A     66  59  77 VRB3      29.92F
PALI 2*          N/A     57  54  88 S23G32      N/A
KEALAKOMO*       N/A     72  57  60 N29G44      N/A
KAUPULEHU*       N/A     64  50  59 NE5G22      N/A
KAPAPALA*        N/A     55  55 100 N5G10       N/A
LOWER KAHUKU*    N/A     90  88  94 N2          N/A  HX 124
PUHE CS*         N/A     73  52  46 SE3G18      N/A
PUHO CS*         N/A     69  55  60 E3          N/A
PTA KEAMUKU*     N/A     55  52  88 E20G28      N/A
WAIKOLOA*        N/A     66  55  68 E22G36      N/A
$$

HIZ027>028-241500-
BIG ISLAND OF HAWAII INTERIOR AND SUMMMITS-

CITY           SKY/WX    TMP DP  RH WIND       PRES   REMARKS
BRADSHAW FIELD CLOUDY    43  27  54 SE5       30.24F
MK VISITOR CEN   N/A     43 -18   7 N5          N/A
MAUNA KEA*       N/A     30 -18  11 N10         N/A  WCI  21
MAUNA LOA*       N/A     36 -26   6 MISG        N/A
MAUNA LOA 1*   NOT AVBL
PTA KIPUKA*    NOT AVBL
PTA RANGE 17*    N/A     48  45  87 NW8         N/A
PTA WEST*        N/A     50  45  81 SE12G18     N/A
NENE CABIN*      N/A     37  34  87 N6G12       N/A
AHUMOA*          N/A     45  36  70 E9          N/A
PTA PORTABLE*  NOT AVBL
PUU MALI*        N/A     45 N/A N/A E3G9        N/A
$$

HIC003-241500-
NORTHWEST ISLANDS-

CITY           SKY/WX    TMP DP  RH WIND       PRES   REMARKS
MIDWAY ISLAND  CLEAR     72  64  78 E13       30.29F
MIDWAY NOS*      N/A     73 N/A N/A MISG      30.27S
FRENCH FRIGATE NOT AVBL
$$

PHZ110>124-180-241500-
BUOY REPORTS

STATION/POSITION TIME  TEMP    WIND        PRES    WAVE   SWELL
                       AIR SEA DIR/SP/G            HT/PER HT/DIR
                 (UTC) (F)     (DEG/KT/KT) (MB)    (FT/S) (FT/D)
BUOY 51001       1420   72 76   70/ 19/ 27 1021.2
BUOY 51101       1350   72 76   60/ 21/ 25 1021.2F  14/13  10/ 20
BUOY 51100       NOT AVBL
BUOY 51002       1430   78 80   60/ 19/ 25 1012.4R
BUOY 51003       1350   76 80   30/ 21/ 27 1014.6F  13/14   8/ 10
BUOY 51004       1430   76 80   40/ 21/ 25 1013.1F
WAIMEA BAY#      1402      76                N/A    13/13   8/360
MOKAPU POINT#    1404      78                N/A    12/14   7
LANAI#           NOT AVBL
BARBERS PT 2#    NOT AVBL
PAUWELA#         NOT AVBL
HILO#            1427      78                N/A    14/14  11/340
KANEOHE BAY#     NOT AVBL
KANEOHE BAY 2#   NOT AVBL
HANALEI#         1422      78                N/A    12/14   8/ 10
KAHULUI HARBOR   1406   74 76   40/ 17/ 22 1016.8
HONOLULU HARBOR  1406   72 78   60/  7/ 11 1017.5
PEARL HARBOR#    1400      79                N/A     2/ 6
KILO NALU        NOT AVBL
HILO HARBOR      1406   71 75  340/ 16/ 19 1016.1
MOKUOLOE         1336   74 74   50/ 14/ 18 1017.6F
NAWILIWILI       1406   71 79   30/ 13/ 20 1018.2
WHOTS BUOY       NOT AVBL
BUOY 51028       NOT AVBL
$$

......................KEY........................................
  SKY/WX - SKY CONDITIONS/PRESENT WEATHER
  TMP    - TEMPERATURE IN FAHRENHEIT
  DWPT   - DEWPOINT IN FAHRENHEIT
  RH     - RELATIVE HUMIDITY IN PERCENT
  WIND   - DIRECTION AND SPEED /MPH FOR ISLANDS...KTS FOR BUOYS/
  PRES   - MEAN SEA LEVEL PRESSURE IN INCHES OF HG
  VSB    - VISIBILITY IN MILES
  HX     - HEAT INDEX
  WCI    - WIND CHILL INDEX
  VRB    - VARIABLE WIND DIRECTION
  N/A    - NOT AVAILABLE




USA.gov is the U.S. government's official web portal to all federal, state and local government web resources and services.